Location: Nians�bougou
(13.2321°N, 4.9818°W)
Time: 06:19:52
(UTC+00:00)

STARLINK-1032 - Pass Details

Date: 18 February 2020
Orbit: 549 x 550 km, 53.0° (Epoch: 07 April)

Event Time Altitude Azimuth Distance (km) Brightness Sun altitude
Exits shadow 05:32:24 32° 316° (NW) 922 4.3 -17.4°
Maximum altitude 05:34:10 76° 236° (SW) 546 3.4 -17.0°
Drops below altitude 10° 05:38:11 10° 149° (SSE) 1,773 6.7 -16.0°
Sets 05:40:24 0° 148° (SSE) 2,667 7.7 -15.5°
